Notices

What's New in latest Release from April 7th, 2021:

- Updated Glossary, including Speed of Maximum Gust, and Total Hourly Precipitation

- Updated national and regional climate services offices contacts and prices information

- Addition of station inventory lists for 1981-2010, 1971-2000, and 1961-1990 Normals.

If you haven't already, please take our survey and provide feedback about our website: https://eccc.sondage-survey.ca/f/LanguageSelection.aspx?s=442ca660-fcf1-47c0-95a9-59707d6fd709

Hourly Data Report for July 07, 2018

TORONTO CITY
ONTARIO
Current Station Operator: ECCC - MSC

43°40'00.000" N
79°24'00.000" W
112.50 m
6158355
71508
XTO

Download Data

Hourly Data (July 2018)
Hourly Data Report for July 7, 2018
TIME
LST
Temp Definition
°C
Dew Point Definition
°C
Rel Hum Definition
%
Precip. Amount Definition
mm

Wind Dir Definition
10's deg

Wind Spd Definition
km/h
Visibility Definition
km
Stn Press Definition
kPa
Hmdx Definition


Wind Chill Definition


Weather Definition


00:00 17.8 6.0 46 0.0 LegendMM LegendMM   101.38     LegendNANA
01:00 17.4 6.6 49 0.0 LegendMM LegendMM   101.38     LegendNANA
02:00 16.5 6.8 53 0.0 LegendMM LegendMM   101.38     LegendNANA
03:00 16.0 6.5 53 0.0 LegendMM LegendMM   101.38     LegendNANA
04:00 16.2 6.4 52 0.0 LegendMM LegendMM   101.37     LegendNANA
05:00 15.9 6.9 55 0.0 LegendMM LegendMM   101.42     LegendNANA
06:00 16.7 6.7 52 0.0 LegendMM LegendMM   101.48     LegendNANA
07:00 19.4 7.1 45 0.0 LegendMM LegendMM   101.51     LegendNANA
08:00 22.1 4.7 32 0.0 LegendMM LegendMM   101.55     LegendNANA
09:00 23.2 6.6 34 0.0 LegendMM LegendMM   101.59     LegendNANA
10:00 23.1 8.0 38 0.0 LegendMM LegendMM   101.60     LegendNANA
11:00 23.0 9.5 42 0.0 LegendMM LegendMM   101.61     LegendNANA
12:00 23.5 7.7 36 0.0 LegendMM LegendMM   101.56     LegendNANA
13:00 24.2 6.3 32 0.0 LegendMM LegendMM   101.50     LegendNANA
14:00 24.9 5.6 29 0.0 LegendMM LegendMM   101.45     LegendNANA
15:00 24.9 4.8 27 0.0 LegendMM LegendMM   101.47     LegendNANA
16:00 25.0 3.3 24 0.0 LegendMM LegendMM   101.38     LegendNANA
17:00 24.9 4.3 26 0.0 LegendMM LegendMM   101.31     LegendNANA
18:00 24.1 6.8 33 0.0 LegendMM LegendMM   101.25     LegendNANA
19:00 23.6 6.2 33 0.0 LegendMM LegendMM   101.27     LegendNANA
20:00 22.2 8.5 41 0.0 LegendMM LegendMM   101.26     LegendNANA
21:00 20.7 9.5 49 0.0 LegendMM LegendMM   101.27     LegendNANA
22:00 20.5 10.9 54 0.0 LegendMM LegendMM   101.27     LegendNANA
23:00 20.7 12.5 60 0.0 LegendMM LegendMM   101.26     LegendNANA

Notes on Data Quality.

Legend

  • E = Estimated
  • M = Missing
  • NA = Not Available*
  • [empty] = Indicates an unobserved value
Date modified: